This demonstration page uses our WeatherBlox Daily Observations layout. Learn more.

Left ArrowRight Arrow

34.16533, -84.80231

Hourly Observations for July 30, 2016

Temp ( °F °C ) Dew Point ( °F °C ) Humidity (%) Winds ( mph kmh ) Pressure ( in mb ) Visibility ( mi km ) Precip ( " mm )
12:53 am 00:53 Cloudy 76 24.4 73 22.8 91 91 Calm 29.96 1015 10 16 0.00 0.00
1:53 am 01:53 Partly Cloudy 74 23.3 73 22.8 97 97 Calm 29.96 1014 10 16 0.00 0.00
2:53 am 02:53 Clear 75 23.9 71 21.7 88 88 VRB 5 7 29.95 1014 10 16 0.00 0.00
3:53 am 03:53 Clear 73 22.8 71 21.7 94 94 Calm 29.94 1014 10 16 0.00 0.00
4:53 am 04:53 Partly Cloudy 74 23.3 71 21.7 91 91 Calm 29.95 1014 10 16 0.00 0.00
5:53 am 05:53 Clear 73 22.8 70 21.1 90 90 Calm 29.96 1015 10 16 0.00 0.00
6:53 am 06:53 Sunny 71 21.7 70 21.1 96 96 Calm 29.98 1015 9 14 0.00 0.00
7:53 am 07:53 Sunny 73 22.8 72 22.2 96 96 Calm 30.00 1016 10 16 0.00 0.00
8:53 am 08:53 Partly Cloudy 77 25 71 21.7 82 82 VRB 3 6 30.01 1016 10 16 0.00 0.00
9:33 am 09:33 Mostly Cloudy 77 25 72 22.2 85 85 Calm 30.00 1016 10 16 0.00 0.00
9:53 am 09:53 Mostly Cloudy 79 26.1 72 22.2 79 79 VRB 3 6 30.02 1017 10 16 0.00 0.00
10:02 am 10:02 Mostly Cloudy 81 27.2 73 22.8 77 77 VRB 3 6 30.00 1016 10 16 0.00 0.00
10:09 am 10:09 Mostly Cloudy 80 26.7 73 22.8 79 79 Calm 30.00 1016 10 16 0.00 0.00
10:53 am 10:53 Cloudy 80 26.7 73 22.8 79 79 VRB 3 6 30.03 1017 10 16 0.00 0.00
11:10 am 11:10 Cloudy 82 27.8 73 22.8 74 74 VRB 3 6 30.00 1016 10 16 0.00 0.00
11:18 am 11:18 Cloudy with Nearby Thunderstorms 81 27.2 73 22.8 77 77 Calm 30.00 1016 10 16 0.00 0.00
11:45 am 11:45 Mostly Cloudy 78 25.6 74 23.3 87 87 VRB 3 6 30.00 1016 10 16 0.00 0.03
11:53 am 11:53 Partly Cloudy 78 25.6 75 23.9 90 90 S 3 6 30.03 1017 10 16 0.00 0.03
12:02 pm 12:02 Partly Cloudy with Nearby Thunderstorms 78 25.6 75 23.9 90 90 S 3 6 30.00 1016 10 16 0.00 0.00
12:17 pm 12:17 Sunny 79 26.1 74 23.3 85 85 Calm 30.00 1016 10 16 0.00 0.00
12:53 pm 12:53 Sunny 83 28.3 73 22.8 72 72 undefined N/A 30.02 1017 10 16 0.00 0.00
1:53 pm 13:53 Sunny 87 30.6 72 22.2 61 61 Calm 29.99 1016 10 16 0.00 0.00
2:53 pm 14:53 Sunny 89 31.7 68 20 50 50 VRB 5 7 29.98 1015 10 16 0.00 0.00
3:53 pm 15:53 Sunny 91 32.8 69 20.6 49 49 VRB 3 6 29.97 1015 10 16 0.00 0.00
4:53 pm 16:53 Sunny 89 31.7 69 20.6 52 52 Calm 29.97 1015 10 16 0.00 0.00
5:53 pm 17:53 Sunny 85 29.4 69 20.6 59 59 Calm 29.95 1014 10 16 0.00 0.00
6:53 pm 18:53 Sunny 83 28.3 71 21.7 67 67 Calm 29.94 1014 10 16 0.00 0.00
7:53 pm 19:53 Sunny 81 27.2 72 22.2 74 74 VRB 3 6 29.97 1015 10 16 0.00 0.00
8:53 pm 20:53 Clear 78 25.6 72 22.2 82 82 Calm 29.99 1016 10 16 0.00 0.00
9:53 pm 21:53 Clear 76 24.4 72 22.2 88 88 Calm 29.99 1016 10 16 0.00 0.00
10:53 pm 22:53 Clear 73 22.8 71 21.7 94 94 Calm 30.00 1016 10 16 0.00 0.00
11:53 pm 23:53 Clear 71 21.7 70 21.1 96 96 Calm 30.01 1016 9 14 0.00 0.00

Powered by AerisWeather